Grand Junction, CO

11:36 AM MDT on October 20, 2019 (GMT -0600)
Walker

Weather History for KGJT - March, 2019

Change the Weather History Date:

Monday, March 11, 2019

  Actual Average Record
Temperature  
Mean Temperature 45 °F 43 °F  
Max Temperature 52 °F 55 °F 73 °F (1900)
Min Temperature 38 °F 31 °F 5 °F (1948)
Degree Days  
Heating Degree Days 20 22  
Month to date heating degree days 240 259  
Since 1 July heating degree days 4695 4638  
Cooling Degree Days 0 0  
Month to date cooling degree days 0 0  
Year to date cooling degree days 0 0  
Moisture  
Dew Point 34 °F    
Average Humidity 68    
Maximum Humidity 86    
Minimum Humidity 50    
Precipitation  
Precipitation T in 0.03 in 0.31 in (2001)
Month to date precipitation 0.96 0.28  
Year to date precipitation 2.40 1.40  
Snow  
Snow 0.00 in 0.10 in 2.50 in (2001)
Month to date snowfall 0.0 0.9  
Since 1 July snowfall 17.4 16.4  
Snow Depth 0.00 in    
Sea Level Pressure  
Sea Level Pressure 30.02 in    
Wind  
Wind Speed 8 mph (ESE)    
Max Wind Speed 21 mph    
Max Gust Speed 26 mph    
Visibility 10 miles    
Events Rain    
T = Trace of Precipitation, MM = Missing Value Source: NWS Daily Summary

Daily Weather History Graph

Daily Weather History Graph

Search for Another Location

Airport or City:

Astronomy

Mar. 11, 2019 Rise Set
Actual Time 7:31 AM MDT 7:16 PM MDT
Civil Twilight 7:05 AM MDT 7:43 PM MDT
Nautical Twilight 6:34 AM MDT 8:14 PM MDT
Astronomical Twilight 6:03 AM MDT 8:45 PM MDT
Moon 10:21 AM MDT (3/11) No Moon Set
Length of Visible Light 12h 38m
Length of Day
11h 45m
Waxing Crescent, 23% of the Moon is Illuminated
Mar 11
Waxing Crescent
Mar 14
First Quarter
Mar 20
Full
Mar 27
Last Quarter
Apr 5
New

Hourly Weather History & Observations

Time (MDT) Temp. Windchill Dew Point Humidity Pressure Visibility Wind Dir Wind Speed Gust Speed Precip Events Conditions
12:53 AM 39.0 °F 35.7 °F 32.0 °F 76% 29.98 in 10.0 mi SE 4.6 mph - N/A   Clear
1:53 AM 39.9 °F - 32.0 °F 73% 29.96 in 10.0 mi Calm Calm - N/A   Clear
2:53 AM 39.0 °F 32.8 °F 30.9 °F 73% 29.97 in 10.0 mi SE 9.2 mph - N/A   Clear
3:53 AM 37.9 °F 30.0 °F 30.0 °F 73% 29.97 in 10.0 mi ESE 12.7 mph - N/A   Mostly Cloudy
4:53 AM 39.9 °F 31.8 °F 30.0 °F 68% 29.97 in 10.0 mi ESE 15.0 mph - N/A   Overcast
5:53 AM 42.1 °F 34.5 °F 30.9 °F 65% 29.97 in 10.0 mi East 15.0 mph - N/A   Overcast
6:53 AM 41.0 °F 32.8 °F 30.9 °F 67% 30.00 in 10.0 mi ESE 16.1 mph 25.3 mph N/A   Overcast
7:53 AM 41.0 °F 32.5 °F 33.1 °F 73% 30.01 in 10.0 mi ESE 17.3 mph - N/A   Overcast
8:53 AM 42.1 °F 33.3 °F 34.0 °F 73% 30.03 in 10.0 mi ESE 19.6 mph 24.2 mph N/A   Overcast
9:53 AM 43.0 °F 37.2 °F 34.0 °F 71% 30.07 in 10.0 mi East 10.4 mph - N/A   Overcast
10:53 AM 45.0 °F 41.2 °F 34.0 °F 65% 30.07 in 10.0 mi ESE 6.9 mph - N/A   Overcast
11:35 AM 42.1 °F 34.9 °F 36.0 °F 79% 30.12 in 10.0 mi NW 13.8 mph - 0.00 in   Overcast
11:53 AM 42.1 °F 36.1 °F 36.0 °F 79% 30.09 in 10.0 mi NNW 10.4 mph - 0.00 in   Overcast
12:53 PM 42.1 °F 37.1 °F 37.0 °F 82% 30.11 in 10.0 mi NW 8.1 mph - 0.00 in Rain Light Rain
1:53 PM 45.0 °F 43.5 °F 37.0 °F 74% 30.09 in 10.0 mi Variable 3.5 mph - 0.00 in   Mostly Cloudy
2:53 PM 46.9 °F - 36.0 °F 66% 30.07 in 10.0 mi SSE 4.6 mph - N/A   Clear
3:53 PM 50.0 °F - 37.0 °F 61% 30.04 in 10.0 mi SE 8.1 mph - N/A   Scattered Clouds
4:53 PM 50.0 °F - 36.0 °F 59% 30.02 in 10.0 mi Calm Calm - N/A   Clear
5:53 PM 51.1 °F - 33.1 °F 50% 29.99 in 10.0 mi Calm Calm - N/A   Scattered Clouds
6:53 PM 50.0 °F - 33.1 °F 52% 30.01 in 10.0 mi Calm Calm - N/A   Scattered Clouds
7:53 PM 48.0 °F - 36.0 °F 63% 30.01 in 10.0 mi Calm Calm - N/A   Scattered Clouds
8:53 PM 43.0 °F 41.3 °F 37.0 °F 80% 30.02 in 10.0 mi East 3.5 mph - N/A   Scattered Clouds
9:53 PM 43.0 °F 40.3 °F 37.0 °F 80% 30.01 in 10.0 mi ENE 4.6 mph - N/A   Clear
10:53 PM 43.0 °F 38.2 °F 37.0 °F 80% 29.99 in 10.0 mi ENE 8.1 mph - N/A   Clear
11:53 PM 41.0 °F 37.1 °F 37.0 °F 86% 29.98 in 10.0 mi ESE 5.8 mph - N/A   Clear